Dyersburg, TN

9:52 AM CDT on May 27, 2018 (GMT -0500)
Dyersburg Municipal

Weather History for KDYR - September, 2013

Change the Weather History Date:

Friday, September 20, 2013

  Actual Average Record
Temperature  
Mean Temperature 74 °F -  
Max Temperature 80 °F 78 °F 96 °F (2010)
Min Temperature 69 °F 57 °F 46 °F (2006)
Cooling Degree Days 10    
Growing Degree Days 24 (Base 50)    
Moisture  
Dew Point 57 °F    
Average Humidity 58    
Maximum Humidity 65    
Minimum Humidity 51    
Precipitation  
Precipitation 0.70 in - - ()
Sea Level Pressure  
Sea Level Pressure 29.92 in    
Wind  
Wind Speed 5 mph (SSW)    
Max Wind Speed 10 mph    
Max Gust Speed -    
Visibility 9 miles    
Events      
Averages and records for this station are not official NWS values.
T = Trace of Precipitation, MM = Missing Value Source: NWS Daily Summary

Daily Weather History Graph

Daily Weather History Graph

Search for Another Location

Airport or City:

Astronomy

Sep. 20, 2013 Rise Set
Actual Time 6:44 AM CDT 6:57 PM CDT
Civil Twilight 6:18 AM CDT 7:22 PM CDT
Nautical Twilight 5:48 AM CDT 7:52 PM CDT
Astronomical Twilight 5:18 AM CDT 8:22 PM CDT
Moon 7:35 PM CDT (9/20) 7:55 AM CDT (9/20)
Length of Visible Light 13h 04m
Length of Day
12h 12m
Full, 98% of the Moon is Illuminated
Sep 20
Full
Sep 26
Last Quarter
Oct 4
New
Oct 11
First Quarter
Oct 18
Full

Hourly Weather History & Observations

Time (CDT) Temp. Heat Index Dew Point Humidity Pressure Visibility Wind Dir Wind Speed Gust Speed Precip Events Conditions
12:15 AM 73.4 °F - 55.4 °F 53% 29.99 in 10.0 mi SSE 3.5 mph - N/A   Clear
12:35 AM 73.4 °F - 55.4 °F 53% 29.99 in 10.0 mi SSE 5.8 mph - N/A   Clear
12:55 AM 73.4 °F - 55.4 °F 53% 29.99 in 10.0 mi SSE 4.6 mph - N/A   Clear
1:15 AM 73.4 °F - 55.4 °F 53% 29.99 in 10.0 mi South 5.8 mph - N/A   Clear
1:35 AM 73.4 °F - 55.4 °F 53% 29.99 in 10.0 mi SSE 5.8 mph - N/A   Clear
1:55 AM 73.4 °F - 55.4 °F 53% 29.98 in 10.0 mi South 5.8 mph - N/A   Clear
2:15 AM 73.4 °F - 55.4 °F 53% 29.99 in 10.0 mi South 4.6 mph - N/A   Clear
2:35 AM 73.4 °F - 55.4 °F 53% 29.98 in 10.0 mi South 5.8 mph - N/A   Scattered Clouds
2:55 AM 73.4 °F - 55.4 °F 53% 29.98 in 10.0 mi Calm Calm - N/A   Mostly Cloudy
3:15 AM 71.6 °F - 55.4 °F 57% 29.98 in 10.0 mi SSE 4.6 mph - N/A   Mostly Cloudy
3:35 AM 71.6 °F - 55.4 °F 57% 29.98 in 10.0 mi South 4.6 mph - N/A   Mostly Cloudy
3:55 AM 71.6 °F - 55.4 °F 57% 29.98 in 10.0 mi South 4.6 mph - N/A   Partly Cloudy
4:15 AM 71.6 °F - 55.4 °F 57% 29.97 in 10.0 mi SSE 4.6 mph - N/A   Clear
4:35 AM 71.6 °F - 53.6 °F 53% 29.98 in 10.0 mi South 3.5 mph - N/A   Clear
4:55 AM 69.8 °F - 53.6 °F 56% 29.98 in 10.0 mi SSE 3.5 mph - N/A   Partly Cloudy
5:15 AM 71.6 °F - 55.4 °F 57% 29.97 in 10.0 mi SSE 4.6 mph - N/A   Scattered Clouds
5:35 AM 71.6 °F - 53.6 °F 53% 29.97 in 10.0 mi SSE 4.6 mph - N/A   Partly Cloudy
5:55 AM 71.6 °F - 53.6 °F 53% 29.97 in 10.0 mi SSE 6.9 mph - N/A   Partly Cloudy
6:15 AM 71.6 °F - 53.6 °F 53% 29.97 in 10.0 mi SSE 4.6 mph - N/A   Partly Cloudy
6:35 AM 71.6 °F - 53.6 °F 53% 29.96 in 10.0 mi SSE 4.6 mph - N/A   Partly Cloudy
6:55 AM 71.6 °F - 53.6 °F 53% 29.97 in 10.0 mi South 4.6 mph - N/A   Scattered Clouds
7:15 AM 71.6 °F - 53.6 °F 53% 29.97 in 10.0 mi SSE 5.8 mph - N/A   Scattered Clouds
7:35 AM 71.6 °F - 53.6 °F 53% 29.97 in 10.0 mi SSE 3.5 mph - N/A   Partly Cloudy
7:56 AM 71.6 °F - 55.4 °F 57% 29.97 in 10.0 mi SSE 5.8 mph - N/A   Clear
8:15 AM 73.4 °F - 55.4 °F 53% 29.97 in 10.0 mi South 5.8 mph - N/A   Partly Cloudy
8:35 AM 73.4 °F - 57.2 °F 57% 29.97 in 10.0 mi SSE 8.1 mph - N/A   Clear
8:55 AM 75.2 °F - 57.2 °F 53% 29.97 in 10.0 mi South 6.9 mph - N/A   Scattered Clouds
9:15 AM 75.2 °F - 57.2 °F 53% 29.96 in 10.0 mi South 4.6 mph - N/A   Overcast
9:35 AM 80.6 °F 81.5 °F 60.8 °F 51% 29.96 in 10.0 mi SSW 5.8 mph - N/A   Mostly Cloudy
9:55 AM 80.6 °F 81.5 °F 60.8 °F 51% 29.96 in 10.0 mi SSW 6.9 mph - N/A   Scattered Clouds
10:16 AM 80.6 °F 81.5 °F 60.8 °F 51% 29.96 in 10.0 mi SW 5.8 mph - N/A   Overcast
10:35 AM 78.8 °F - 60.8 °F 54% 29.96 in 10.0 mi SW 6.9 mph - N/A   Overcast
10:55 AM 73.4 °F - 59.0 °F 61% 29.96 in 7.0 mi SW 10.4 mph - 0.09 in   Overcast
11:15 AM 73.4 °F - 60.8 °F 65% 29.96 in 10.0 mi WSW 8.1 mph - 0.01 in   Overcast
11:35 AM 73.4 °F - 60.8 °F 65% 29.96 in 9.0 mi WSW 8.1 mph - 0.02 in   Overcast
11:55 AM 73.4 °F - 60.8 °F 65% 29.95 in 8.0 mi West 3.5 mph - N/A   Mostly Cloudy
12:15 PM 73.4 °F - 60.8 °F 65% 29.95 in 10.0 mi West 4.6 mph - N/A   Overcast
12:35 PM 73.4 °F - 59.0 °F 61% 29.94 in 7.0 mi NW 4.6 mph - N/A   Overcast
12:55 PM 71.6 °F - 59.0 °F 64% 29.93 in 7.0 mi WNW 4.6 mph - N/A   Overcast
1:16 PM 71.6 °F - 59.0 °F 64% 29.93 in 8.0 mi NNW 4.6 mph - N/A   Mostly Cloudy
1:35 PM 73.4 °F - 59.0 °F 61% 29.92 in 4.0 mi North 4.6 mph - N/A   Overcast
1:55 PM 73.4 °F - 59.0 °F 61% 29.91 in 8.0 mi North 4.6 mph - 0.13 in   Mostly Cloudy
2:16 PM 73.4 °F - 59.0 °F 61% 29.90 in 7.0 mi North 6.9 mph - 0.02 in   Mostly Cloudy
2:35 PM 71.6 °F - 59.0 °F 64% 29.88 in 9.0 mi NNE 6.9 mph - 0.05 in   Mostly Cloudy
2:55 PM 73.4 °F - 59.0 °F 61% 29.88 in 9.0 mi NE 5.8 mph - 0.06 in   Mostly Cloudy
3:15 PM 73.4 °F - 59.0 °F 61% 29.88 in 6.0 mi NE 5.8 mph - 0.04 in   Overcast
3:35 PM 71.6 °F - 59.0 °F 64% 29.87 in 4.0 mi North 6.9 mph - 0.14 in   Overcast
3:55 PM 71.6 °F - 59.0 °F 64% 29.87 in 5.0 mi ENE 4.6 mph - 0.21 in   Mostly Cloudy
4:15 PM 71.6 °F - 59.0 °F 64% 29.87 in 7.0 mi NE 4.6 mph - 0.03 in   Overcast
4:35 PM 71.6 °F - 59.0 °F 64% 29.87 in 5.0 mi North 4.6 mph - 0.07 in   Mostly Cloudy
4:55 PM 71.6 °F - 59.0 °F 64% 29.85 in 7.0 mi North 6.9 mph - 0.08 in   Overcast
5:15 PM 71.6 °F - 57.2 °F 60% 29.85 in 10.0 mi NW 5.8 mph - 0.01 in   Overcast
5:35 PM 71.6 °F - 57.2 °F 60% 29.86 in 6.0 mi NNW 6.9 mph - 0.05 in   Overcast
5:55 PM 69.8 °F - 57.2 °F 64% 29.86 in 5.0 mi NNW 4.6 mph - N/A   Mostly Cloudy
6:15 PM 69.8 °F - 57.2 °F 64% 29.86 in 9.0 mi NNW 6.9 mph - N/A   Mostly Cloudy
6:55 PM 69.8 °F - 55.4 °F 60% 29.85 in 7.0 mi North 5.8 mph - N/A   Overcast
7:16 PM 69.8 °F - 57.2 °F 64% 29.85 in 10.0 mi Calm Calm - N/A   Mostly Cloudy
7:35 PM 69.8 °F - 57.2 °F 64% 29.85 in 10.0 mi NNW 3.5 mph - N/A   Mostly Cloudy
7:55 PM 69.8 °F - 57.2 °F 64% 29.85 in 10.0 mi North 6.9 mph - 0.01 in   Overcast
8:15 PM 69.8 °F - 55.4 °F 60% 29.86 in 10.0 mi Calm Calm - N/A   Overcast
8:36 PM 69.8 °F - 57.2 °F 64% 29.88 in 10.0 mi West 3.5 mph - N/A   Overcast
8:55 PM 69.8 °F - 55.4 °F 60% 29.88 in 9.0 mi WNW 3.5 mph - 0.01 in   Overcast
9:15 PM 69.8 °F - 55.4 °F 60% 29.88 in 10.0 mi Calm Calm - 0.02 in   Mostly Cloudy
9:36 PM 69.8 °F - 55.4 °F 60% 29.86 in 10.0 mi Calm Calm - 0.02 in   Overcast
9:55 PM 69.8 °F - 55.4 °F 60% 29.86 in 10.0 mi North 3.5 mph - 0.03 in   Overcast
10:15 PM 69.8 °F - 55.4 °F 60% 29.86 in 10.0 mi Calm Calm - N/A   Scattered Clouds
10:35 PM 69.8 °F - 55.4 °F 60% 29.85 in 10.0 mi North 3.5 mph - N/A   Clear
10:55 PM 69.8 °F - 55.4 °F 60% 29.85 in 10.0 mi Calm Calm - N/A   Clear
11:15 PM 69.8 °F - 55.4 °F 60% 29.86 in 10.0 mi NNW 3.5 mph - N/A   Partly Cloudy
11:35 PM 69.8 °F - 55.4 °F 60% 29.87 in 10.0 mi NW 4.6 mph - 0.01 in   Mostly Cloudy
11:55 PM 69.8 °F - 55.4 °F 60% 29.87 in 10.0 mi WNW 6.9 mph - N/A   Overcast